This is the latest recevied weather packets stored in our database for station/object IZ1RFL-3. If no packets are shown the sender has not sent any weather packets the latest 10 day(s).
| Time | Temp. | Humidity | Pressure | Rain* | Wind** | Luminosity | Snow |
|---|---|---|---|---|---|---|---|
| 1778116567 | 13.33° C | 80% | 1012.4 hPa | - | - | - | - |
| 1778115667 | 13.33° C | 81% | 1012.3 hPa | - | - | - | - |
| 1778114767 | 13.89° C | 81% | 1012.4 hPa | - | - | - | - |
| 1778113867 | 13.89° C | 80% | 1012.4 hPa | - | - | - | - |
| 1778112967 | 13.89° C | 79% | 1012.4 hPa | - | - | - | - |
| 1778112067 | 13.89° C | 80% | 1012.3 hPa | - | - | - | - |
| 1778111167 | 13.89° C | 80% | 1012.1 hPa | - | - | - | - |
| 1778110267 | 13.89° C | 80% | 1012.1 hPa | - | - | - | - |
| 1778109367 | 13.89° C | 80% | 1012.2 hPa | - | - | - | - |
| 1778108467 | 13.89° C | 78% | 1012.1 hPa | - | - | - | - |
| 1778107567 | 14.44° C | 79% | 1012 hPa | - | - | - | - |
| 1778106667 | 14.44° C | 77% | 1011.8 hPa | - | - | - | - |
| 1778105767 | 14.44° C | 77% | 1011.6 hPa | - | - | - | - |
| 1778104867 | 14.44° C | 78% | 1011.6 hPa | - | - | - | - |
| 1778103967 | 14.44° C | 77% | 1011.4 hPa | - | - | - | - |
| 1778103067 | 15.56° C | 74% | 1011.3 hPa | - | - | - | - |
| 1778102167 | 15° C | 73% | 1011.4 hPa | - | - | - | - |
| 1778101267 | 15° C | 75% | 1011.4 hPa | - | - | - | - |
| 1778100367 | 15.56° C | 73% | 1011.1 hPa | - | - | - | - |
| 1778099467 | 15.56° C | 73% | 1010.7 hPa | - | - | - | - |
| 1778098567 | 15.56° C | 72% | 1010.6 hPa | - | - | - | - |
| 1778097667 | 16.11° C | 70% | 1010.3 hPa | - | - | - | - |
| 1778096767 | 16.11° C | 66% | 1009.8 hPa | - | - | - | - |
| 1778095868 | 16.67° C | 67% | 1009.4 hPa | - | - | - | - |
| 1778094967 | 16.11° C | 68% | 1009.1 hPa | - | - | - | - |
* Rain since midnight (hover to see other rain measurements)
** Current wind speed in m/s (hover to see current wind gust speed)